Tracking 18984 objects as of 23-Feb-2018
HD Live streaming from Space Station
objects crossing your sky now

FENGYUN 1C DEB

Track FENGYUN 1C DEB now!
10-day predictions


NORAD ID: 32360
Int'l Code: 1999-025CZD
Perigee: 767.4 km
Apogee: 1,179.1 km
Inclination: 98.1 °
Period: 104.4 minutes
Semi major axis: 7344 km
RCS: 0.0069 m2 (small)
Launch date: May 10, 1999
Source: People's Republic of China (PRC)
Launch site: Taiyaun Space Center, China (TSC)

Note: This is SATELLITE DEBRIS
aabbcc
Your satellite tracking list
Your tracking list is empty




NASA's NSSDC Master Catalog

Two Line Element Set (TLE):
1 32360U 99025CZD 18050.67314893 +.00001365 +00000-0 +10171-2 0  9991
2 32360 098.1231 208.7673 0280225 276.4253 080.5067 13.79373167536637
Source of the keplerian elements: AFSPC